contact:dominique.lefevre@mio.osupytheas.fr, maurice.libes@osupytheas.fr, didier.mallarino@osupytheas.fr
Project:EMSO http://www.emso-fr.org/EMSO-France
Depth: 2436.0 m
Title:EMSO Ligure Ouest : Data MII capteur AQUADOPP
Date,Latitude,Longitude,X_East,Y_North,Z_Up,Amplitude_X,Amplitude_Y,Amplitude_Z,Batterie,SoundSpeed,Heading,Pitch,Roll,Pressure,TIS,Speed,Direction
, degrees North, degrees East, m.s-1, m.s-1,m.s-1, 1, 1, 1, Volt, m.s-1, degree, degree, degree, dbar, degree_C, m.s-1, degree
2020-11-17T00:04:03,42.805,6.029,-0.041,0.009,-0.023,102.0,107.0,100.0,13.4,1505.3,326.8,-0.7,1.8,2470.408,13.31,0.041,282.4
2020-11-17T00:07:03,42.805,6.029,-0.027,0.007,0.029,103.0,108.0,100.0,13.4,1505.3,325.3,-0.7,1.8,2470.418,13.31,0.027,284.5
2020-11-17T00:10:03,42.805,6.029,-0.049,-0.001,0.014,102.0,108.0,99.0,13.4,1505.3,325.1,-0.7,1.8,2470.405,13.32,0.049,268.8
2020-11-17T00:13:03,42.805,6.029,-0.05,0.008,-0.012,103.0,107.0,98.0,13.3,1505.3,325.2,-0.7,1.8,2470.363,13.32,0.05,279.1
2020-11-17T00:16:03,42.805,6.029,-0.053,0.009,-0.013,103.0,109.0,100.0,13.4,1505.3,326.2,-0.7,1.9,2470.362,13.32,0.053,279.6
2020-11-17T00:19:03,42.805,6.029,0.028,0.016,0.058,101.0,107.0,100.0,13.3,1505.3,326.5,-0.7,1.8,2470.387,13.32,0.032,60.3
2020-11-17T00:22:03,42.805,6.029,-0.058,0.02,0.001,103.0,107.0,99.0,13.4,1505.3,326.7,-0.7,1.8,2470.368,13.33,0.061,289.0
2020-11-17T00:25:03,42.805,6.029,-0.044,0.016,0.005,102.0,108.0,99.0,13.4,1505.3,326.7,-0.7,1.9,2470.363,13.33,0.046,290.0
2020-11-17T00:28:03,42.805,6.029,-0.043,0.007,-0.023,102.0,107.0,100.0,13.4,1505.3,327.2,-0.7,1.8,2470.361,13.33,0.043,279.2
2020-11-17T00:31:03,42.805,6.029,-0.041,0.0,0.031,102.0,108.0,100.0,13.4,1505.3,326.6,-0.7,1.8,2470.388,13.33,0.041,270.0
2020-11-17T00:34:03,42.805,6.029,-0.055,0.005,-0.004,102.0,106.0,99.0,13.4,1505.3,322.6,-0.7,1.8,2470.358,13.33,0.055,275.2
2020-11-17T00:37:03,42.805,6.029,-0.019,0.016,0.02,101.0,107.0,100.0,13.4,1505.3,328.0,-0.7,1.8,2470.41,13.33,0.024,310.1
2020-11-17T00:40:03,42.805,6.029,-0.015,0.005,0.013,103.0,105.0,99.0,13.4,1505.3,324.5,-0.7,1.8,2470.338,13.33,0.015,288.4
2020-11-17T00:43:03,42.805,6.029,-0.039,-0.005,0.01,101.0,107.0,100.0,13.4,1505.3,325.1,-0.7,1.8,2470.322,13.33,0.039,262.7
2020-11-17T00:46:03,42.805,6.029,-0.062,0.001,-0.045,101.0,106.0,101.0,13.4,1505.3,325.3,-0.7,1.9,2470.364,13.33,0.062,270.9
2020-11-17T00:49:03,42.805,6.029,-0.044,0.023,-0.03,102.0,107.0,99.0,13.4,1505.3,325.0,-0.7,1.8,2470.366,13.33,0.049,297.6
2020-11-17T00:52:03,42.805,6.029,-0.057,0.001,-0.004,101.0,108.0,98.0,13.4,1505.3,323.4,-0.7,1.8,2470.387,13.33,0.057,271.0
2020-11-17T00:55:03,42.805,6.029,-0.05,-0.016,-0.007,103.0,108.0,100.0,13.3,1505.3,326.2,-0.7,1.8,2470.345,13.33,0.052,252.3
2020-11-17T00:58:03,42.805,6.029,-0.057,0.008,0.0,101.0,108.0,99.0,13.4,1505.3,323.2,-0.7,1.8,2470.323,13.33,0.057,278.0
2020-11-17T01:04:03,42.805,6.029,-0.029,0.007,-0.003,102.0,108.0,101.0,13.4,1505.3,324.3,-0.7,1.8,2470.372,13.31,0.029,283.6
2020-11-17T01:07:03,42.805,6.029,-0.056,0.007,-0.01,103.0,106.0,99.0,13.4,1505.3,326.4,-0.7,1.8,2470.35,13.31,0.056,277.1
2020-11-17T01:10:03,42.805,6.029,-0.015,0.023,0.017,102.0,106.0,100.0,13.4,1505.3,324.1,-0.7,1.9,2470.377,13.32,0.027,326.9
2020-11-17T01:13:03,42.805,6.029,-0.027,0.005,0.017,103.0,107.0,99.0,13.4,1505.3,323.7,-0.7,1.8,2470.356,13.32,0.027,280.5
2020-11-17T01:16:03,42.805,6.029,-0.045,-0.004,-0.025,101.0,107.0,99.0,13.3,1505.3,326.8,-0.7,1.8,2470.396,13.32,0.045,264.9
2020-11-17T01:19:03,42.805,6.029,-0.064,0.002,0.001,102.0,107.0,99.0,13.4,1505.3,326.5,-0.7,1.9,2470.364,13.32,0.064,271.8
2020-11-17T01:22:03,42.805,6.029,-0.004,0.011,0.002,102.0,107.0,100.0,13.3,1505.3,326.8,-0.7,1.8,2470.353,13.33,0.011,340.0
2020-11-17T01:25:03,42.805,6.029,-0.007,0.013,0.015,101.0,109.0,98.0,13.3,1505.3,326.6,-0.7,1.8,2470.319,13.33,0.014,331.7
2020-11-17T01:28:03,42.805,6.029,-0.014,0.015,0.044,102.0,107.0,101.0,13.3,1505.3,326.4,-0.7,1.9,2470.3,13.33,0.02,317.0
2020-11-17T01:31:03,42.805,6.029,-0.045,-0.002,-0.017,99.0,108.0,100.0,13.4,1505.3,324.7,-0.7,1.8,2470.361,13.33,0.045,267.5
2020-11-17T01:34:03,42.805,6.029,-0.01,-0.002,0.01,103.0,107.0,99.0,13.4,1505.3,325.9,-0.7,1.8,2470.304,13.33,0.01,258.7
2020-11-17T01:37:03,42.805,6.029,-0.027,0.016,0.007,101.0,106.0,100.0,13.4,1505.3,326.5,-0.7,1.8,2470.339,13.33,0.031,300.7
2020-11-17T01:40:03,42.805,6.029,-0.049,-0.006,0.005,103.0,107.0,99.0,13.3,1505.3,325.4,-0.7,1.8,2470.321,13.33,0.049,263.0
2020-11-17T01:43:03,42.805,6.029,-0.067,0.008,-0.029,102.0,106.0,100.0,13.4,1505.3,324.6,-0.7,1.8,2470.31,13.33,0.067,276.8
2020-11-17T01:46:03,42.805,6.029,-0.049,-0.006,-0.026,102.0,109.0,99.0,13.3,1505.3,325.0,-0.7,1.9,2470.342,13.33,0.049,263.0
2020-11-17T01:49:03,42.805,6.029,-0.072,0.0,-0.015,102.0,107.0,101.0,13.4,1505.3,327.3,-0.7,1.8,2470.319,13.33,0.071,270.0
2020-11-17T01:52:03,42.805,6.029,-0.046,-0.003,-0.023,102.0,106.0,99.0,13.4,1505.3,327.0,-0.7,1.8,2470.316,13.33,0.046,266.3
2020-11-17T01:55:03,42.805,6.029,-0.039,0.022,0.005,100.0,107.0,100.0,13.3,1505.3,324.1,-0.7,1.8,2470.315,13.33,0.044,299.4
2020-11-17T01:58:03,42.805,6.029,-0.052,-0.007,-0.033,102.0,107.0,97.0,13.3,1505.3,325.2,-0.7,1.8,2470.338,13.33,0.052,262.3
2020-11-17T02:04:03,42.805,6.029,-0.029,-0.008,-0.016,101.0,107.0,100.0,13.4,1505.3,324.5,-0.7,1.8,2470.412,13.31,0.03,254.6
2020-11-17T02:07:03,42.805,6.029,-0.016,0.0,0.011,101.0,108.0,100.0,13.3,1505.3,326.8,-0.7,1.8,2470.345,13.31,0.016,270.0
2020-11-17T02:10:03,42.805,6.029,-0.087,0.004,-0.043,100.0,107.0,99.0,13.4,1505.3,326.5,-0.7,1.8,2470.363,13.32,0.087,272.6
2020-11-17T02:13:03,42.805,6.029,-0.051,0.013,-0.035,100.0,108.0,100.0,13.3,1505.3,323.2,-0.7,1.8,2470.355,13.32,0.052,284.3
2020-11-17T02:16:03,42.805,6.029,-0.064,0.008,-0.027,101.0,106.0,99.0,13.4,1505.3,327.1,-0.7,1.8,2470.337,13.32,0.064,277.1
2020-11-17T02:19:03,42.805,6.029,-0.04,0.002,0.022,101.0,107.0,100.0,13.4,1505.3,324.3,-0.7,1.8,2470.335,13.32,0.04,272.9
2020-11-17T02:25:03,42.805,6.029,-0.035,0.029,0.013,102.0,106.0,99.0,13.4,1505.3,322.9,-0.7,1.8,2470.367,13.31,0.045,309.6
2020-11-17T02:28:03,42.805,6.029,-0.019,0.012,0.015,101.0,107.0,99.0,13.4,1505.3,326.6,-0.7,1.8,2470.342,13.31,0.022,302.3
2020-11-17T02:31:03,42.805,6.029,-0.022,0.001,-0.029,102.0,106.0,98.0,13.3,1505.3,326.1,-0.7,1.8,2470.383,13.32,0.022,272.6
2020-11-17T02:34:03,42.805,6.029,-0.051,0.015,-0.003,102.0,107.0,98.0,13.4,1505.3,325.5,-0.7,1.8,2470.321,13.32,0.053,286.4
2020-11-17T02:37:03,42.805,6.029,-0.043,0.03,0.014,100.0,109.0,101.0,13.3,1505.3,324.9,-0.7,1.8,2470.348,13.32,0.052,304.9
2020-11-17T02:40:03,42.805,6.029,-0.052,0.03,-0.013,101.0,109.0,99.0,13.4,1505.3,325.0,-0.7,1.8,2470.312,13.32,0.06,300.0
2020-11-17T02:43:03,42.805,6.029,-0.086,0.018,-0.064,101.0,107.0,99.0,13.3,1505.3,324.6,-0.7,1.8,2470.328,13.33,0.087,281.8
2020-11-17T02:46:03,42.805,6.029,-0.029,-0.002,-0.009,101.0,110.0,99.0,13.3,1505.3,325.9,-0.7,1.8,2470.34,13.33,0.029,266.1
2020-11-17T02:49:03,42.805,6.029,-0.043,0.013,0.0,101.0,109.0,99.0,13.4,1505.3,326.8,-0.7,1.8,2470.305,13.33,0.044,286.8
2020-11-17T02:52:03,42.805,6.029,-0.033,0.025,0.025,101.0,108.0,100.0,13.3,1505.3,326.4,-0.7,1.8,2470.319,13.33,0.041,307.1
2020-11-17T02:55:03,42.805,6.029,-0.048,0.001,0.008,100.0,108.0,100.0,13.4,1505.3,326.8,-0.7,1.8,2470.331,13.33,0.048,271.2
2020-11-17T02:58:03,42.805,6.029,-0.043,0.01,-0.021,101.0,106.0,99.0,13.4,1505.3,326.0,-0.7,1.8,2470.31,13.33,0.044,283.1
2020-11-17T03:04:03,42.805,6.029,-0.065,0.009,-0.021,100.0,109.0,100.0,13.4,1505.3,325.2,-0.7,1.8,2470.393,13.31,0.065,277.9
2020-11-17T03:07:03,42.805,6.029,-0.038,0.006,0.011,102.0,108.0,99.0,13.4,1505.3,326.7,-0.7,1.9,2470.349,13.31,0.038,279.0
2020-11-17T03:10:03,42.805,6.029,-0.107,0.027,-0.037,100.0,107.0,100.0,13.3,1505.3,326.3,-0.7,1.9,2470.366,13.32,0.11,284.2
2020-11-17T03:13:03,42.805,6.029,-0.069,0.021,-0.001,101.0,109.0,100.0,13.3,1505.3,326.3,-0.7,1.9,2470.348,13.32,0.072,286.9
2020-11-17T03:16:03,42.805,6.029,-0.059,-0.009,-0.021,101.0,109.0,98.0,13.3,1505.3,326.7,-0.7,1.8,2470.314,13.32,0.059,261.3
2020-11-17T03:19:03,42.805,6.029,-0.066,0.017,-0.017,101.0,110.0,99.0,13.4,1505.3,326.0,-0.7,1.8,2470.352,13.33,0.068,284.4
2020-11-17T03:22:03,42.805,6.029,-0.054,0.027,-0.025,100.0,111.0,99.0,13.4,1505.3,326.3,-0.7,1.8,2470.367,13.33,0.06,296.6
2020-11-17T03:25:03,42.805,6.029,-0.069,0.002,-0.021,101.0,111.0,99.0,13.4,1505.3,326.7,-0.7,1.8,2470.331,13.33,0.069,271.7
2020-11-17T03:28:03,42.805,6.029,-0.03,0.002,0.019,101.0,111.0,99.0,13.4,1505.3,326.2,-0.7,1.8,2470.338,13.33,0.03,273.8
2020-11-17T03:31:03,42.805,6.029,-0.044,0.006,-0.006,101.0,110.0,100.0,13.4,1505.3,323.9,-0.7,1.8,2470.358,13.33,0.044,277.8
2020-11-17T03:34:03,42.805,6.029,-0.045,0.016,-0.015,103.0,111.0,100.0,13.3,1505.3,325.4,-0.6,1.8,2470.312,13.33,0.047,289.6
2020-11-17T03:37:03,42.805,6.029,-0.033,0.002,0.026,100.0,112.0,99.0,13.4,1505.3,325.2,-0.7,1.8,2470.346,13.33,0.033,273.5
2020-11-17T03:40:03,42.805,6.029,-0.018,0.004,0.03,101.0,110.0,99.0,13.4,1505.3,327.4,-0.7,1.8,2470.33,13.33,0.018,282.5
2020-11-17T03:43:03,42.805,6.029,0.003,0.018,0.057,100.0,112.0,99.0,13.4,1505.3,327.5,-0.7,1.8,2470.306,13.33,0.018,9.5
2020-11-17T03:46:03,42.805,6.029,-0.02,0.015,0.022,103.0,107.0,98.0,13.3,1505.3,325.4,-0.7,1.8,2470.326,13.33,0.025,306.9
2020-11-17T03:49:03,42.805,6.029,-0.022,0.028,0.048,102.0,110.0,99.0,13.4,1505.3,323.3,-0.7,1.8,2470.316,13.33,0.035,321.8
2020-11-17T03:52:03,42.805,6.029,-0.001,0.029,0.031,101.0,110.0,99.0,13.4,1505.3,324.5,-0.7,1.8,2470.336,13.33,0.029,358.0
2020-11-17T03:55:03,42.805,6.029,-0.011,0.01,0.034,102.0,109.0,100.0,13.4,1505.3,327.9,-0.7,1.8,2470.348,13.33,0.014,312.3
2020-11-17T03:58:03,42.805,6.029,-0.015,0.001,-0.01,101.0,110.0,99.0,13.4,1505.3,326.5,-0.7,1.8,2470.323,13.33,0.015,273.8
2020-11-17T04:04:03,42.805,6.029,-0.029,0.02,0.015,103.0,109.0,99.0,13.4,1505.3,326.2,-0.7,1.8,2470.364,13.31,0.035,304.6
2020-11-17T04:07:03,42.805,6.029,-0.002,0.0,0.032,101.0,110.0,99.0,13.4,1505.3,327.0,-0.7,1.8,2470.347,13.32,0.002,270.0
2020-11-17T04:10:03,42.805,6.029,0.001,0.024,0.074,101.0,110.0,99.0,13.3,1505.3,326.6,-0.7,1.8,2470.379,13.32,0.024,2.4
2020-11-17T04:13:03,42.805,6.029,-0.001,0.019,0.044,101.0,110.0,99.0,13.4,1505.3,326.0,-0.7,1.8,2470.392,13.32,0.019,357.0
2020-11-17T04:16:03,42.805,6.029,-0.065,0.001,-0.034,102.0,108.0,99.0,13.4,1505.3,325.8,-0.7,1.8,2470.366,13.33,0.065,270.9
2020-11-17T04:19:03,42.805,6.029,-0.059,-0.002,-0.015,102.0,107.0,100.0,13.3,1505.3,326.4,-0.7,1.9,2470.363,13.33,0.059,268.1
2020-11-17T04:22:03,42.805,6.029,-0.04,0.02,0.0,101.0,107.0,101.0,13.4,1505.3,323.4,-0.7,1.8,2470.413,13.33,0.044,296.6
2020-11-17T04:25:03,42.805,6.029,-0.027,0.0,0.029,100.0,108.0,100.0,13.4,1505.3,327.0,-0.7,1.9,2470.371,13.33,0.026,270.0
2020-11-17T04:31:03,42.805,6.029,-0.024,-0.006,0.002,102.0,109.0,99.0,13.3,1505.3,324.2,-0.7,1.8,2470.401,13.31,0.024,256.0
2020-11-17T04:34:03,42.805,6.029,-0.038,-0.009,-0.03,101.0,107.0,100.0,13.4,1505.3,326.7,-0.7,1.9,2470.404,13.32,0.039,256.7
2020-11-17T04:37:03,42.805,6.029,-0.033,0.003,-0.004,102.0,106.0,100.0,13.4,1505.3,325.3,-0.7,1.8,2470.382,13.32,0.033,275.2
2020-11-17T04:40:03,42.805,6.029,-0.037,0.006,0.02,100.0,108.0,101.0,13.4,1505.3,324.1,-0.7,1.8,2470.423,13.33,0.037,279.2
2020-11-17T04:43:03,42.805,6.029,-0.036,0.019,0.01,101.0,107.0,99.0,13.4,1505.3,324.5,-0.7,1.8,2470.376,13.33,0.04,297.8
2020-11-17T04:46:03,42.805,6.029,-0.029,0.012,0.014,102.0,107.0,99.0,13.3,1505.3,324.7,-0.7,1.8,2470.415,13.33,0.031,292.5
2020-11-17T04:49:03,42.805,6.029,0.006,0.013,0.047,102.0,108.0,100.0,13.4,1505.3,325.5,-0.7,1.9,2470.412,13.33,0.014,24.8
2020-11-17T04:52:03,42.805,6.029,-0.012,0.015,0.015,100.0,108.0,100.0,13.4,1505.3,327.5,-0.7,1.8,2470.443,13.33,0.019,321.3
2020-11-17T04:55:03,42.805,6.029,-0.013,-0.008,0.004,102.0,108.0,100.0,13.3,1505.3,326.3,-0.7,1.8,2470.39,13.33,0.015,238.4
2020-11-17T04:58:03,42.805,6.029,-0.042,0.016,-0.042,99.0,110.0,100.0,13.4,1505.3,326.0,-0.7,1.8,2470.411,13.33,0.044,290.9
2020-11-17T05:04:03,42.805,6.029,-0.032,0.011,0.007,103.0,107.0,99.0,13.4,1505.3,327.2,-0.8,1.8,2470.431,13.31,0.033,289.0
2020-11-17T05:07:03,42.805,6.029,-0.024,0.016,0.008,102.0,107.0,100.0,13.4,1505.3,324.9,-0.8,1.8,2470.445,13.32,0.028,303.7
2020-11-17T05:10:03,42.805,6.029,-0.056,-0.009,-0.04,99.0,109.0,101.0,13.4,1505.3,324.3,-0.7,1.8,2470.469,13.33,0.056,260.9
2020-11-17T05:13:03,42.805,6.029,-0.045,0.008,-0.027,100.0,109.0,100.0,13.4,1505.3,326.4,-0.7,1.8,2470.436,13.33,0.045,280.1
2020-11-17T05:16:03,42.805,6.029,-0.064,0.023,-0.042,100.0,109.0,101.0,13.4,1505.3,325.4,-0.7,1.8,2470.436,13.33,0.068,289.8
2020-11-17T05:19:03,42.805,6.029,-0.019,-0.013,0.005,102.0,108.0,99.0,13.4,1505.3,324.3,-0.7,1.8,2470.446,13.33,0.023,235.6
2020-11-17T05:22:03,42.805,6.029,-0.005,-0.005,-0.005,101.0,108.0,99.0,13.4,1505.3,325.1,-0.7,1.8,2470.459,13.33,0.007,225.0
2020-11-17T05:25:03,42.805,6.029,-0.049,-0.017,-0.018,102.0,108.0,100.0,13.4,1505.3,324.9,-0.7,1.8,2470.435,13.33,0.051,250.9
2020-11-17T05:28:03,42.805,6.029,-0.057,0.009,-0.024,101.0,108.0,99.0,13.4,1505.3,328.3,-0.7,1.8,2470.459,13.33,0.057,279.0
2020-11-17T05:31:03,42.805,6.029,0.007,-0.024,-0.004,99.0,109.0,99.0,13.3,1505.3,327.1,-0.7,1.8,2470.485,13.33,0.025,163.7
2020-11-17T05:34:03,42.805,6.029,-0.04,0.006,-0.037,101.0,109.0,99.0,13.4,1505.3,323.2,-0.7,1.8,2470.457,13.33,0.04,278.5
2020-11-17T05:37:03,42.805,6.029,-0.034,0.029,-0.009,102.0,109.0,98.0,13.3,1505.3,324.1,-0.7,1.8,2470.484,13.33,0.044,310.5
2020-11-17T05:40:03,42.805,6.029,-0.041,-0.004,-0.053,103.0,110.0,100.0,13.3,1505.3,326.9,-0.7,1.8,2470.475,13.33,0.041,264.4
2020-11-17T05:43:03,42.805,6.029,-0.005,-0.014,0.006,101.0,107.0,100.0,13.3,1505.4,326.8,-0.7,1.8,2470.48,13.34,0.014,199.6
2020-11-17T05:46:03,42.805,6.029,-0.001,0.0,-0.024,102.0,107.0,99.0,13.4,1505.4,326.7,-0.7,1.8,2470.44,13.34,0.001,270.0
2020-11-17T05:49:03,42.805,6.029,-0.06,0.009,-0.016,101.0,109.0,100.0,13.4,1505.3,326.8,-0.7,1.8,2470.434,13.33,0.06,278.5
2020-11-17T05:52:03,42.805,6.029,-0.041,0.001,-0.015,101.0,108.0,99.0,13.4,1505.3,325.2,-0.7,1.8,2470.477,13.33,0.041,271.4
2020-11-17T05:55:03,42.805,6.029,-0.066,0.004,-0.051,102.0,108.0,100.0,13.4,1505.3,324.3,-0.7,1.8,2470.493,13.33,0.066,273.5
2020-11-17T05:58:03,42.805,6.029,-0.027,0.018,0.011,103.0,107.0,99.0,13.4,1505.3,326.1,-0.7,1.8,2470.485,13.33,0.032,303.7
2020-11-17T06:04:03,42.805,6.029,-0.025,0.013,-0.004,101.0,107.0,99.0,13.4,1505.3,326.9,-0.7,1.8,2470.549,13.32,0.028,297.5
2020-11-17T06:07:03,42.805,6.029,-0.059,0.018,-0.012,101.0,107.0,99.0,13.4,1505.3,325.0,-0.7,1.8,2470.502,13.32,0.061,287.0
2020-11-17T06:10:03,42.805,6.029,-0.034,-0.009,-0.013,102.0,109.0,100.0,13.4,1505.3,323.1,-0.7,1.8,2470.514,13.33,0.035,255.2
2020-11-17T06:16:03,42.805,6.029,-0.036,-0.013,-0.05,102.0,107.0,100.0,13.3,1505.3,327.3,-0.8,1.8,2470.575,13.31,0.038,250.1
2020-11-17T06:19:03,42.805,6.029,-0.028,0.001,0.001,101.0,108.0,99.0,13.4,1505.3,324.4,-0.7,1.8,2470.557,13.32,0.028,272.0
2020-11-17T06:22:03,42.805,6.029,-0.065,0.02,-0.01,101.0,109.0,100.0,13.4,1505.3,323.6,-0.7,1.8,2470.53,13.32,0.068,287.1
2020-11-17T06:25:03,42.805,6.029,-0.043,0.003,0.004,101.0,108.0,99.0,13.4,1505.3,323.0,-0.7,1.9,2470.563,13.33,0.043,274.0
2020-11-17T06:28:03,42.805,6.029,-0.027,-0.001,-0.006,101.0,107.0,100.0,13.4,1505.3,325.9,-0.7,1.8,2470.499,13.33,0.027,267.9
2020-11-17T06:31:03,42.805,6.029,-0.071,-0.001,-0.045,101.0,107.0,99.0,13.4,1505.3,325.9,-0.7,1.9,2470.53,13.33,0.071,269.2
2020-11-17T06:34:03,42.805,6.029,-0.056,0.006,-0.022,101.0,106.0,100.0,13.3,1505.3,325.5,-0.7,1.9,2470.515,13.33,0.056,276.1
2020-11-17T06:37:03,42.805,6.029,-0.066,-0.001,-0.043,101.0,108.0,99.0,13.4,1505.3,326.4,-0.7,1.8,2470.538,13.33,0.066,269.1
2020-11-17T06:40:03,42.805,6.029,-0.047,0.017,-0.034,101.0,109.0,99.0,13.3,1505.3,325.6,-0.7,1.8,2470.549,13.33,0.049,289.9
2020-11-17T06:43:03,42.805,6.029,-0.037,0.01,-0.02,101.0,109.0,100.0,13.4,1505.3,327.0,-0.7,1.9,2470.548,13.33,0.038,285.1
2020-11-17T06:46:03,42.805,6.029,-0.031,0.022,0.0,101.0,109.0,99.0,13.3,1505.3,325.3,-0.7,1.8,2470.57,13.33,0.038,305.4
2020-11-17T06:49:03,42.805,6.029,-0.039,-0.019,-0.025,101.0,110.0,100.0,13.3,1505.4,323.6,-0.7,1.8,2470.562,13.34,0.043,244.0
2020-11-17T06:52:03,42.805,6.029,-0.03,-0.011,-0.016,101.0,107.0,99.0,13.4,1505.4,323.0,-0.7,1.9,2470.591,13.34,0.031,249.9
2020-11-17T06:55:03,42.805,6.029,-0.049,0.0,-0.02,101.0,108.0,100.0,13.3,1505.3,323.3,-0.7,1.8,2470.559,13.33,0.049,270.0
2020-11-17T07:04:03,42.805,6.029,-0.051,-0.002,-0.034,102.0,106.0,100.0,13.4,1505.2,324.7,-0.8,1.8,2470.628,13.3,0.051,267.8
2020-11-17T07:07:03,42.805,6.029,-0.033,0.019,-0.051,101.0,107.0,100.0,13.4,1505.3,324.5,-0.7,1.8,2470.646,13.31,0.038,299.9
2020-11-17T07:10:03,42.805,6.029,0.025,0.0,0.013,101.0,108.0,100.0,13.4,1505.3,327.6,-0.7,1.8,2470.622,13.32,0.025,90.0
2020-11-17T07:13:03,42.805,6.029,-0.029,-0.01,-0.028,100.0,108.0,100.0,13.3,1505.3,325.4,-0.7,1.8,2470.6,13.33,0.03,251.0
2020-11-17T07:16:03,42.805,6.029,-0.033,0.01,-0.011,103.0,108.0,99.0,13.4,1505.3,324.0,-0.7,1.8,2470.628,13.33,0.034,286.9
2020-11-17T07:19:03,42.805,6.029,-0.048,0.018,-0.001,102.0,108.0,99.0,13.3,1505.3,325.3,-0.7,1.9,2470.64,13.33,0.051,290.6
2020-11-17T07:22:03,42.805,6.029,-0.067,0.014,-0.043,101.0,109.0,98.0,13.3,1505.3,324.8,-0.7,1.8,2470.601,13.33,0.068,281.8
2020-11-17T07:25:03,42.805,6.029,-0.052,0.006,0.011,102.0,109.0,98.0,13.3,1505.3,324.5,-0.7,1.8,2470.603,13.33,0.052,276.6
2020-11-17T07:46:03,42.805,6.029,-0.031,0.011,0.011,103.0,107.0,99.0,13.4,1505.2,326.4,-0.8,1.8,2470.881,13.28,0.032,289.5
2020-11-17T07:49:03,42.805,6.029,-0.041,-0.012,-0.033,101.0,106.0,101.0,13.4,1505.2,325.7,-0.7,1.8,2470.852,13.3,0.042,253.7
2020-11-17T07:52:03,42.805,6.029,-0.084,0.009,-0.053,102.0,109.0,99.0,13.3,1505.3,326.2,-0.7,1.8,2470.815,13.31,0.084,276.1
2020-11-17T07:55:03,42.805,6.029,-0.063,0.006,-0.068,100.0,107.0,100.0,13.3,1505.3,326.1,-0.7,1.8,2470.795,13.32,0.063,275.4
2020-11-17T07:58:03,42.805,6.029,-0.084,-0.007,-0.053,102.0,106.0,99.0,13.3,1505.3,325.6,-0.7,1.8,2470.783,13.32,0.084,265.2
2020-11-17T08:04:03,42.805,6.029,-0.014,0.0,0.027,100.0,107.0,99.0,13.4,1505.3,326.7,-0.8,1.8,2470.765,13.31,0.014,270.0
2020-11-17T08:07:03,42.805,6.029,-0.064,-0.011,-0.033,101.0,107.0,98.0,13.4,1505.3,323.6,-0.7,1.8,2470.723,13.32,0.064,260.2
2020-11-17T08:10:03,42.805,6.029,0.015,0.0,0.045,101.0,105.0,100.0,13.3,1505.3,323.0,-0.7,1.8,2470.698,13.32,0.015,90.0
2020-11-17T08:13:03,42.805,6.029,-0.025,0.003,0.0,101.0,107.0,100.0,13.4,1505.3,324.4,-0.7,1.8,2470.669,13.33,0.025,276.8
2020-11-17T08:16:03,42.805,6.029,-0.022,0.001,-0.039,101.0,105.0,100.0,13.4,1505.3,328.1,-0.7,1.8,2470.676,13.33,0.022,272.6
2020-11-17T08:19:03,42.805,6.029,-0.036,-0.019,-0.029,101.0,108.0,99.0,13.4,1505.3,324.1,-0.7,1.8,2470.703,13.33,0.04,242.2
2020-11-17T08:22:03,42.805,6.029,-0.011,-0.005,0.02,102.0,107.0,99.0,13.3,1505.3,324.3,-0.7,1.8,2470.662,13.33,0.012,245.6
2020-11-17T08:25:03,42.805,6.029,-0.012,0.012,0.021,101.0,106.0,99.0,13.3,1505.3,325.4,-0.7,1.8,2470.668,13.33,0.016,315.0
2020-11-17T08:28:03,42.805,6.029,-0.071,0.0,-0.053,101.0,105.0,99.0,13.4,1505.3,325.7,-0.7,1.8,2470.66,13.33,0.07,270.0
2020-11-17T08:31:03,42.805,6.029,-0.028,0.009,0.034,101.0,107.0,99.0,13.4,1505.3,326.4,-0.7,1.8,2470.658,13.33,0.029,287.8
2020-11-17T08:34:03,42.805,6.029,-0.03,0.003,-0.002,101.0,107.0,99.0,13.4,1505.3,324.7,-0.7,1.8,2470.658,13.33,0.03,275.7
2020-11-17T08:37:03,42.805,6.029,-0.007,0.006,0.017,102.0,106.0,98.0,13.4,1505.3,326.3,-0.7,1.8,2470.639,13.33,0.009,310.6
2020-11-17T08:40:03,42.805,6.029,0.0,-0.001,0.017,101.0,106.0,99.0,13.3,1505.3,328.0,-0.7,1.8,2470.598,13.33,0.001,180.0
2020-11-17T08:46:03,42.805,6.029,-0.056,-0.011,-0.057,101.0,106.0,99.0,13.4,1505.3,323.3,-0.7,1.8,2470.645,13.31,0.057,258.9
2020-11-17T08:49:03,42.805,6.029,0.004,0.015,0.042,101.0,107.0,98.0,13.4,1505.3,326.4,-0.7,1.8,2470.651,13.32,0.015,14.9
2020-11-17T08:52:03,42.805,6.029,-0.055,-0.033,-0.017,101.0,107.0,99.0,13.4,1505.3,324.3,-0.7,1.8,2470.64,13.32,0.064,239.0
2020-11-17T08:55:03,42.805,6.029,-0.042,0.01,-0.031,102.0,106.0,99.0,13.3,1505.3,326.4,-0.7,1.8,2470.649,13.33,0.043,283.4
2020-11-17T08:58:03,42.805,6.029,-0.059,0.007,-0.035,101.0,107.0,99.0,13.3,1505.3,328.5,-0.7,1.8,2470.617,13.33,0.059,276.8
2020-11-17T09:04:03,42.805,6.029,-0.045,0.016,-0.02,101.0,106.0,100.0,13.3,1505.3,323.9,-0.7,1.8,2470.642,13.31,0.047,289.6
2020-11-17T09:07:03,42.805,6.029,-0.028,-0.007,-0.002,101.0,107.0,100.0,13.3,1505.3,324.7,-0.7,1.8,2470.656,13.32,0.028,256.0
2020-11-17T09:10:03,42.805,6.029,-0.031,0.021,0.012,100.0,107.0,100.0,13.4,1505.3,324.4,-0.7,1.8,2470.638,13.32,0.037,304.1
2020-11-17T09:13:03,42.805,6.029,-0.027,0.009,0.016,99.0,108.0,100.0,13.3,1505.3,323.8,-0.7,1.8,2470.668,13.32,0.028,288.4
2020-11-17T09:16:03,42.805,6.029,-0.032,-0.001,0.008,101.0,107.0,99.0,13.4,1505.3,325.4,-0.7,1.8,2470.628,13.33,0.032,268.2
2020-11-17T09:19:03,42.805,6.029,-0.03,0.0,0.001,100.0,106.0,100.0,13.4,1505.3,326.2,-0.7,1.8,2470.663,13.33,0.03,270.0
2020-11-17T09:22:03,42.805,6.029,-0.007,-0.018,-0.003,101.0,106.0,100.0,13.4,1505.3,326.2,-0.7,1.8,2470.614,13.33,0.019,201.2
2020-11-17T09:25:03,42.805,6.029,-0.032,0.016,-0.014,102.0,107.0,99.0,13.4,1505.3,327.9,-0.7,1.8,2470.606,13.33,0.035,296.6
2020-11-17T09:28:03,42.805,6.029,-0.026,0.018,0.019,101.0,106.0,101.0,13.4,1505.3,327.5,-0.7,1.8,2470.561,13.33,0.031,304.7
2020-11-17T09:31:03,42.805,6.029,-0.059,-0.002,-0.051,102.0,107.0,99.0,13.3,1505.3,326.5,-0.7,1.9,2470.616,13.33,0.059,268.1
2020-11-17T09:34:03,42.805,6.029,-0.075,0.017,-0.055,100.0,106.0,100.0,13.4,1505.3,326.3,-0.7,1.8,2470.604,13.33,0.076,282.8
2020-11-17T09:37:03,42.805,6.029,-0.022,0.0,-0.018,100.0,108.0,98.0,13.4,1505.3,325.7,-0.7,1.9,2470.61,13.33,0.022,270.0
2020-11-17T09:40:03,42.805,6.029,-0.028,0.017,0.038,101.0,108.0,99.0,13.3,1505.3,323.7,-0.7,1.8,2470.597,13.33,0.032,301.3
2020-11-17T09:43:03,42.805,6.029,-0.048,0.004,-0.024,102.0,106.0,99.0,13.3,1505.3,326.6,-0.7,1.8,2470.568,13.33,0.048,274.8
2020-11-17T09:46:03,42.805,6.029,-0.035,-0.001,-0.001,101.0,106.0,100.0,13.3,1505.3,326.7,-0.7,1.8,2470.597,13.33,0.035,268.4
2020-11-17T09:49:03,42.805,6.029,-0.046,-0.013,-0.023,102.0,107.0,99.0,13.3,1505.3,325.6,-0.7,1.8,2470.533,13.33,0.047,254.2
2020-11-17T09:52:03,42.805,6.029,-0.007,0.004,-0.01,103.0,106.0,99.0,13.4,1505.3,326.4,-0.7,1.8,2470.553,13.33,0.008,299.7
2020-11-17T09:55:03,42.805,6.029,-0.017,-0.008,0.0,101.0,106.0,99.0,13.4,1505.3,324.5,-0.7,1.8,2470.57,13.33,0.018,244.8
2020-11-17T09:58:03,42.805,6.029,-0.034,-0.012,0.004,101.0,106.0,99.0,13.3,1505.3,323.7,-0.7,1.9,2470.556,13.33,0.036,250.6
2020-11-17T10:01:03,42.805,6.029,-0.044,-0.008,-0.016,100.0,108.0,99.0,13.4,1505.3,326.3,-0.7,1.8,2470.57,13.33,0.044,259.7
2020-11-17T10:04:03,42.805,6.029,-0.038,0.004,-0.004,100.0,106.0,100.0,13.4,1505.3,324.7,-0.7,1.8,2470.537,13.33,0.038,276.0
2020-11-17T10:07:03,42.805,6.029,-0.067,0.006,-0.052,101.0,107.0,99.0,13.3,1505.3,325.3,-0.7,1.8,2470.586,13.33,0.067,275.1
2020-11-17T10:10:03,42.805,6.029,-0.042,0.003,-0.015,101.0,107.0,100.0,13.3,1505.3,325.1,-0.7,1.8,2470.557,13.33,0.042,274.1
2020-11-17T10:13:03,42.805,6.029,-0.007,-0.013,-0.023,102.0,107.0,100.0,13.4,1505.3,325.7,-0.7,1.8,2470.547,13.33,0.014,208.3
2020-11-17T10:16:03,42.805,6.029,-0.049,-0.006,-0.068,101.0,106.0,100.0,13.4,1505.3,327.1,-0.7,1.9,2470.52,13.33,0.049,263.0
2020-11-17T10:19:03,42.805,6.029,-0.047,0.016,0.007,103.0,106.0,100.0,13.4,1505.3,326.3,-0.7,1.8,2470.585,13.33,0.049,288.8
2020-11-17T10:22:03,42.805,6.029,-0.055,0.01,-0.022,101.0,106.0,101.0,13.3,1505.3,324.8,-0.7,1.8,2470.527,13.33,0.055,280.3
2020-11-17T10:25:03,42.805,6.029,-0.04,-0.005,-0.035,101.0,108.0,101.0,13.4,1505.3,325.6,-0.7,1.8,2470.564,13.33,0.04,262.9
2020-11-17T10:28:03,42.805,6.029,-0.02,-0.003,-0.029,102.0,106.0,100.0,13.4,1505.3,326.9,-0.7,1.8,2470.55,13.33,0.02,261.5
2020-11-17T10:31:03,42.805,6.029,-0.059,-0.009,-0.03,101.0,105.0,100.0,13.4,1505.3,325.7,-0.7,1.8,2470.581,13.33,0.059,261.3